Flag for Canada Weather past 2 weeks in Pond Inlet, Nunavut Territory, Canada

Now
30 °F

Overcast.


Feels Like: 23 °F
Forecast: N/A
Wind: 7 mph from Southwest

Location: Pond Inlet

Current Time: Sep 22, 2014 at 4:55:37 PM

Latest Report: Sep 22, 2014 at 4:00 PM


Visibility: 35 mi

Pressure: 29.71 "Hg

Humidity: 80%

Dew point: 25 °F

Location of Pond InletLocation

Historic Weather in Pond Inlet — Graph

°F

Pond Inlet temperature yesterday

Maximum temperature yesterday: 27 °F (at 1:00 AM)
Minimum temperature yesterday: 25 °F (at 12:00 AM)
Average temperature yesterday: 26 °F

Past Weeks' High & Low Weather Summary

 TemperatureHumidityPressure
High39 °F (Sep 9, 5:00 PM)100% (Sep 7, 10:00 PM)29.93 "Hg (Sep 7, 10:00 PM)
Low19 °F (Sep 17, 1:00 AM)60% (Sep 13, 1:00 PM)29.21 "Hg (Sep 13, 3:00 PM)
Average30 °F85%29.61 "Hg
* Reported Sep 7 4:00 PM — Sep 22 4:00 PM, Pond Inlet, Weather by CustomWeather, © 2014

Note: Actual official high and low records may vary slightly from our data, if they occured in-between our weather recording intervals... More about our weather records

Advertising

Pond Inlet weather history for previous 24 hours

 ConditionsComfort  
Time TempWeatherWind HumidityBarometerVisibility
4:00 PM
Sep 22
30 °FOvercast.7 mph80%29.71 "Hg35 mi
3:56 PM30 °FOvercast.7 mph80%29.71 "Hg35 mi
3:00 PM30 °FSnow flurries. Cloudy.12 mph86%29.70 "Hg25 mi
2:00 PM30 °FBroken clouds.10 mph80%29.68 "Hg40 mi
1:53 PM30 °FBroken clouds.9 mph80%29.68 "Hg40 mi
1:00 PM27 °FLight snow. Broken clouds.7 mph93%29.66 "Hg40 mi
12:00 PM28 °FSnow flurries. Cloudy.7 mph93%29.65 "Hg2 mi
11:00 AM28 °FLight snow. Mostly cloudy.10 mph93%29.64 "Hg25 mi
10:00 AM28 °FOvercast.12 mph86%29.63 "Hg9 mi
9:03 AM28 °FLight snow. Mostly cloudy.13 mph86%29.61 "Hg9 mi
8:00 AM27 °FOvercast.9 mph93%29.59 "Hg9 mi
7:00 AM28 °FMostly cloudy.9 mph86%29.58 "Hg9 mi
6:00 AM27 °FMostly cloudy.15 mph86%29.57 "Hg9 mi
5:00 AM25 °FLight snow. Passing clouds.17 mph86%29.55 "Hg10 mi
4:00 AM25 °FLight snow. Overcast.15 mph93%29.54 "Hg10 mi
3:00 AM27 °FLight snow. Overcast.14 mph86%29.54 "Hg10 mi
2:00 AM25 °FLight snow. Overcast.12 mph93%29.54 "Hg9 mi
1:47 AM25 °FLight snow. Overcast.12 mph93%29.54 "Hg9 mi
1:04 AM25 °FLight snow. Overcast.12 mph93%29.54 "Hg9 mi
1:00 AM25 °FLight snow. Overcast.12 mph93%29.54 "Hg9 mi
12:00 AM25 °FOvercast.10 mph93%29.54 "Hg9 mi
11:00 PM
Sep 21
25 °FMostly cloudy.8 mph100%29.54 "HgN/A
10:04 PM25 °FLight snow. Overcast.9 mph100%29.55 "Hg5 mi
9:52 PM25 °FLight snow. Low clouds.8 mph100%29.55 "Hg6 mi
9:00 PM27 °FLight snow. Overcast.7 mph93%29.55 "Hg9 mi
8:00 PM27 °FOvercast.8 mph93%29.56 "HgN/A
7:00 PM27 °FLight snow. Overcast.7 mph93%29.56 "Hg9 mi
6:57 PM27 °FLight snow. Overcast.9 mph93%29.56 "Hg9 mi
6:02 PM27 °FLight snow. More clouds than sun.8 mph93%29.56 "Hg9 mi
5:04 PM27 °FLight snow. Mostly cloudy.7 mph93%29.57 "Hg8 mi
4:00 PM27 °FLight snow. Cloudy.12 mph93%29.57 "Hg8 mi
Weather by CustomWeather, © 2014

See weather overviewHow to use our weather pages